Location: Maddington
(51.2000°N, 1.9167°W)
Time: 22:57:18
(UTC+00:00)

NOSS 3-2 (A) - Pass Details

Date: 23 January 2021
Orbit: 783 x 1425 km, 63.4° (Epoch: 07 March)

Event Time Altitude Azimuth Distance (km) Brightness Sun altitude
Rises 06:08:09 0° 202° (SSW) 3,335 6.2 -16.7°
Reaches altitude 10° 06:10:31 10° 197° (SSW) 2,455 5.6 -16.4°
Maximum altitude 06:15:57 51° 123° (ESE) 1,145 4.3 -15.5°
Drops below altitude 10° 06:22:14 10° 50° (NE) 2,825 6.4 -14.6°
Sets 06:25:07 0° 45° (NE) 3,885 7.1 -14.1°
